La Crosse, WI

11:45 PM CST on December 17, 2017 (GMT -0600)
La Crosse Municipal

Weather History for KLSE - March, 2013

Change the Weather History Date:

Sunday, March 31, 2013

  Actual Average Record
Temperature  
Mean Temperature 36 °F 42 °F  
Max Temperature 43 °F 52 °F 83 °F (1986)
Min Temperature 29 °F 31 °F 5 °F (1969)
Degree Days  
Heating Degree Days 29 24  
Month to date heating degree days 1195 945  
Since 1 July heating degree days 6524 6453  
Cooling Degree Days 0 0  
Month to date cooling degree days 0 0  
Year to date cooling degree days 0 0  
Moisture  
Dew Point 28 °F    
Average Humidity 69    
Maximum Humidity 100    
Minimum Humidity 37    
Precipitation  
Precipitation T in 0.08 in 1.25 in (2008)
Month to date precipitation 2.12 2.04  
Year to date precipitation 4.52 4.21  
Snow  
Snow 0.00 in 0.10 in 8.30 in (1929)
Month to date snowfall 15.6 7.1  
Since 1 July snowfall 55.6 41.6  
Snow Depth T in    
Sea Level Pressure  
Sea Level Pressure 29.85 in    
Wind  
Wind Speed 11 mph (West)    
Max Wind Speed 26 mph    
Max Gust Speed 36 mph    
Visibility 5 miles    
Events Fog , Rain    
T = Trace of Precipitation, MM = Missing Value Source: NWS Daily Summary

Daily Weather History Graph

Daily Weather History Graph

Search for Another Location

Airport or City:

Trip Planner

Search our weather history database for the weather conditions in past years. The results will help you decide how hot, cold, wet, or windy it might be!

Date:

Astronomy

Mar. 31, 2013 Rise Set
Actual Time 6:47 AM CDT 7:31 PM CDT
Civil Twilight 6:18 AM CDT 8:00 PM CDT
Nautical Twilight 5:44 AM CDT 8:34 PM CDT
Astronomical Twilight 5:08 AM CDT 9:10 PM CDT
Moon No Moon Rise 9:27 AM CDT (3/31)
Length of Visible Light 13h 41m
Length of Day
12h 43m
Waning Gibbous, 77% of the Moon is Illuminated
Mar 31
Waning Gibbous
Apr 2
Last Quarter
Apr 10
New
Apr 18
First Quarter
Apr 25
Full

Hourly Weather History & Observations

Time (CDT) Temp. Windchill Dew Point Humidity Pressure Visibility Wind Dir Wind Speed Gust Speed Precip Events Conditions
12:05 AM 37.4 °F 33.8 °F 35.6 °F 93% 29.83 in 1.5 mi South 4.6 mph - N/A   Mostly Cloudy
12:15 AM 37.4 °F 33.8 °F 35.6 °F 93% 29.83 in 1.2 mi South 4.6 mph - N/A   Mostly Cloudy
12:35 AM 35.6 °F 31.7 °F 35.6 °F 100% 29.83 in 0.5 mi SSW 4.6 mph - N/A Fog Fog
12:53 AM 35.1 °F 31.0 °F 35.1 °F 100% 29.86 in 1.0 mi SSW 4.6 mph - N/A   Mostly Cloudy
1:16 AM 33.8 °F 29.6 °F 33.8 °F 100% 29.83 in 0.2 mi South 4.6 mph - N/A Fog Fog
1:40 AM 33.8 °F - 33.8 °F 100% 29.82 in 0.5 mi Calm Calm - N/A Fog Fog
1:53 AM 34.0 °F 31.0 °F 33.1 °F 96% 29.84 in 0.5 mi South 3.5 mph - N/A Fog Fog
1:56 AM 33.8 °F - 33.8 °F 100% 29.82 in 0.2 mi Calm Calm - N/A Fog Fog
2:10 AM 33.8 °F - 33.8 °F 100% 29.82 in 0.5 mi Calm Calm - N/A Fog Fog
2:19 AM 30.2 °F - 30.2 °F 100% 29.82 in 0.2 mi Calm Calm - N/A Fog Light Freezing Fog
2:30 AM 30.2 °F - 28.4 °F 93% 29.82 in 0.2 mi Calm Calm - N/A Fog Light Freezing Fog
2:46 AM 32.0 °F 26.4 °F 30.2 °F 93% 29.82 in 0.2 mi NW 5.8 mph - N/A Fog Fog
2:53 AM 30.9 °F - 30.0 °F 96% 29.85 in 0.2 mi Calm Calm - N/A Fog Light Freezing Fog
3:04 AM 30.2 °F - 30.2 °F 100% 29.82 in 0.2 mi Calm Calm - N/A Fog Light Freezing Fog
3:53 AM 30.0 °F - 28.9 °F 96% 29.84 in 0.2 mi Calm Calm - N/A Fog Light Freezing Fog
4:24 AM 30.2 °F 25.4 °F 28.4 °F 93% 29.81 in 1.0 mi SW 4.6 mph - N/A   Mist
4:27 AM 30.2 °F 25.4 °F 28.4 °F 93% 29.81 in 2.0 mi SW 4.6 mph - N/A   Scattered Clouds
4:36 AM 30.2 °F 25.4 °F 28.4 °F 93% 29.80 in 4.0 mi SW 4.6 mph - N/A   Scattered Clouds
4:53 AM 30.9 °F 25.2 °F 30.0 °F 96% 29.83 in 6.0 mi SW 5.8 mph - N/A   Mostly Cloudy
5:53 AM 32.0 °F 28.7 °F 30.0 °F 92% 29.82 in 4.0 mi SW 3.5 mph - N/A   Partly Cloudy
6:53 AM 30.9 °F 26.2 °F 28.9 °F 92% 29.82 in 2.5 mi SSW 4.6 mph - N/A   Mostly Cloudy
7:30 AM 33.8 °F 27.0 °F 30.2 °F 87% 29.79 in 4.0 mi West 8.1 mph - N/A   Mostly Cloudy
7:41 AM 33.8 °F 25.3 °F 30.2 °F 87% 29.80 in 5.0 mi West 11.5 mph - N/A   Mostly Cloudy
7:53 AM 33.1 °F 24.4 °F 30.0 °F 89% 29.83 in 5.0 mi West 11.5 mph - N/A   Overcast
8:53 AM 34.0 °F 26.0 °F 30.9 °F 89% 29.82 in 5.0 mi West 10.4 mph - N/A   Overcast
9:53 AM 35.1 °F 26.4 °F 30.9 °F 85% 29.82 in 6.0 mi WNW 12.7 mph - N/A   Overcast
10:53 AM 36.0 °F 31.1 °F 32.0 °F 86% 29.82 in 8.0 mi West 5.8 mph - N/A   Overcast
11:29 AM 37.4 °F 30.3 °F 32.0 °F 81% 29.80 in 8.0 mi WNW 10.4 mph - N/A   Overcast
11:53 AM 37.0 °F 27.0 °F 30.9 °F 79% 29.82 in 8.0 mi WNW 18.4 mph 23.0 mph N/A   Overcast
12:53 PM 37.0 °F 29.3 °F 30.0 °F 76% 29.83 in 8.0 mi WNW 11.5 mph - N/A   Overcast
1:53 PM 41.0 °F 33.5 °F 32.0 °F 70% 29.83 in 9.0 mi WNW 13.8 mph - N/A   Mostly Cloudy
2:05 PM 41.0 °F 34.3 °F 30.2 °F 65% 29.80 in 10.0 mi WNW 11.5 mph - N/A   Mostly Cloudy
2:53 PM 39.0 °F 30.6 °F 30.0 °F 70% 29.83 in 10.0 mi West 15.0 mph - 0.00 in Rain Light Rain
3:39 PM 35.6 °F 26.6 °F 28.4 °F 75% 29.82 in 10.0 mi NW 13.8 mph - 0.00 in   Overcast
3:53 PM 39.9 °F 31.1 °F 27.0 °F 60% 29.85 in 10.0 mi NW 17.3 mph - 0.00 in   Scattered Clouds
4:53 PM 41.0 °F 31.9 °F 21.0 °F 45% 29.86 in 10.0 mi NW 19.6 mph - N/A   Scattered Clouds
5:53 PM 37.9 °F 28.9 °F 14.0 °F 38% 29.88 in 10.0 mi NNW 16.1 mph - N/A   Clear
6:53 PM 36.0 °F 26.7 °F 14.0 °F 41% 29.91 in 10.0 mi NNW 15.0 mph - N/A   Clear
7:53 PM 34.0 °F 23.4 °F 14.0 °F 44% 29.94 in 10.0 mi NW 17.3 mph 23.0 mph N/A   Clear
8:53 PM 32.0 °F 23.0 °F 15.1 °F 50% 29.96 in 10.0 mi NW 11.5 mph - N/A   Clear
9:53 PM 32.0 °F 22.5 °F 12.9 °F 45% 29.99 in 10.0 mi NNW 12.7 mph - N/A   Clear
10:53 PM 30.9 °F 21.2 °F 15.1 °F 52% 30.01 in 10.0 mi NW 12.7 mph - N/A   Partly Cloudy
11:53 PM 30.0 °F 19.5 °F 14.0 °F 51% 30.03 in 10.0 mi NW 13.8 mph - N/A   Mostly Cloudy